Foz do Iguacu, Brazil

11:58 AM -02 on November 23, 2017 (GMT -0200)
Foz do Iguacu

Weather History for SBFI - July, 2013

Change the Weather History Date:

Thursday, July 25, 2013

  Actual Average Record
Temperature  
Mean Temperature 46 °F -  
Max Temperature 62 °F 75 °F 86 °F (2016)
Min Temperature 29 °F 52 °F 29 °F (2013)
Degree Days  
Heating Degree Days 20    
Moisture  
Dew Point 33 °F    
Average Humidity 76    
Maximum Humidity 100    
Minimum Humidity 20    
Precipitation  
Precipitation 0.00 in - - ()
Sea Level Pressure  
Sea Level Pressure 30.34 in    
Wind  
Wind Speed 3 mph ()    
Max Wind Speed 10 mph    
Max Gust Speed -    
Visibility 4.6 miles    
Events Fog    
Averages and records for this station are not official NWS values.
T = Trace of Precipitation, MM = Missing Value Source: Averaged Metar Reports

Daily Weather History Graph

Daily Weather History Graph

Search for Another Location

Airport or City:

Trip Planner

Search our weather history database for the weather conditions in past years. The results will help you decide how hot, cold, wet, or windy it might be!

Date:

Astronomy

Jul. 25, 2013 Rise Set
Actual Time 7:19 AM -03 6:09 PM -03
Civil Twilight 6:55 AM -03 6:34 PM -03
Nautical Twilight 6:27 AM -03 7:02 PM -03
Astronomical Twilight 6:00 AM -03 7:29 PM -03
Moon 9:30 PM -03 (7/25) 9:12 AM -03 (7/25)
Length of Visible Light 11h 38m
Length of Day
10h 50m
Waning Gibbous, 89% of the Moon is Illuminated
Jul 25
Waning Gibbous
Jul 29
Last Quarter
Aug 6
New
Aug 14
First Quarter
Aug 20
Full

Hourly Weather History & Observations

Time (-03) Temp. Windchill Dew Point Humidity Pressure Visibility Wind Dir Wind Speed Gust Speed Precip Events Conditions
12:00 AM 35.6 °F - 35.6 °F 100% 30.36 in - SE 2.3 mph - N/A   Clear
1:00 AM 33.8 °F - 33.8 °F 100% 30.36 in - Calm Calm - N/A   Clear
2:00 AM 33.8 °F 30.8 °F 33.8 °F 100% 30.36 in - South 3.5 mph - N/A   Clear
3:00 AM 33 °F - 32 °F 94% 30.38 in 12 mi East 2.3 mph - -  
3:00 AM 32.0 °F - 32.0 °F 100% 30.33 in - East 2.3 mph - N/A   Clear
4:00 AM 33.8 °F 30.8 °F 33.8 °F 100% 30.33 in - SE 3.5 mph - N/A   Clear
5:00 AM 30.2 °F - 30.2 °F 100% - - SSE 2.3 mph - N/A Fog Fog
5:25 AM 30.2 °F - 30.2 °F 100% 30.33 in 3.1 mi South 2.3 mph - N/A Fog Patches of Fog
6:00 AM 32.0 °F 28.7 °F 32.0 °F 100% 30.33 in 3.1 mi SE 3.5 mph - N/A Fog Patches of Fog
7:00 AM - - - N/A% 30.33 in 0.9 mi ESE 2.3 mph - N/A Fog Patches of Fog
8:00 AM 30.2 °F - 30.2 °F 100% 30.36 in 3.7 mi Calm Calm - N/A Fog Patches of Fog
9:00 AM 38 °F - 35 °F 84% 30.42 in 1 mi East 2.3 mph - - Fog Patches of Fog
9:00 AM 37.4 °F - 35.6 °F 93% 30.36 in 1.2 mi East 2.3 mph - N/A Fog Patches of Fog
10:00 AM 41.0 °F 37.1 °F 39.2 °F 93% 30.39 in - East 5.8 mph - N/A   Clear
11:00 AM 48.2 °F - 37.4 °F 66% 30.39 in - East 6.9 mph - N/A   Clear
12:00 PM 53.6 °F - 39.2 °F 58% 30.39 in - ESE 5.8 mph - N/A   Clear
1:00 PM 57.2 °F - 30.2 °F 36% 30.36 in - ESE 8.1 mph - N/A   Clear
2:00 PM 59.0 °F - 28.4 °F 31% 30.30 in - East 10.4 mph - N/A   Clear
3:00 PM 62.6 °F - 28.4 °F 27% 30.30 in - East 8.1 mph - N/A   Clear
4:00 PM 62.6 °F - 21.2 °F 20% 30.30 in - ENE 8.1 mph - N/A   Clear
5:00 PM 62.6 °F - 23.0 °F 22% 30.30 in - SE 5.8 mph - N/A   Clear
6:00 PM 55.4 °F - 35.6 °F 47% 30.30 in - SSE 4.6 mph - N/A   Clear
7:00 PM 46.4 °F 45.2 °F 37.4 °F 71% 30.30 in - South 3.5 mph - N/A   Clear
8:00 PM 44.6 °F - 37.4 °F 76% 30.30 in - Calm Calm - N/A   Clear
9:00 PM 42 °F - 36 °F 74% 30.37 in 12 mi East 2.3 mph - -  
9:00 PM 42.8 °F - 37.4 °F 81% 30.33 in - East 2.3 mph - N/A   Clear
10:00 PM 39.2 °F 35.9 °F 37.4 °F 93% 30.36 in - SSW 4.6 mph - N/A   Clear
11:00 PM 41.0 °F - 39.2 °F 93% 30.36 in - SSW 2.3 mph - N/A   Clear